Location: Taukkyan
(23.1052°N, 94.0030°E)
Time: 23:03:34
(UTC+00:00)

GPS 2-12 Rocket1 - Pass Details

Date: 06 July 2020
Orbit: 586 x 652 km, 20.0° (Epoch: 05 August)

Event Time Altitude Azimuth Distance (km) Brightness Sun altitude
Exits shadow 21:19:53 47° 177° (S) 797 3.3 -21.3°
Drops below altitude 10° 21:23:56 10° 114° (ESE) 1,914 5.9 -20.6°
Sets 21:26:18 0° 109° (ESE) 2,807 6.9 -20.2°
